User: anonymous   Login
Location: Plymouth
(43.7570°N, 71.6890°W)
Time: 17:07:47
(UTC-04:00)
Language:

Meteor 1-28 Rocket - Orbit

View from above orbital plane
View from above orbital plane
View from above satellite
View from above satellite

Ground track
Ground track

The orbit data is extracted from the following two-line orbital elements,

1 10114U 77057B   15182.55216452  .00000753  00000-0  43159-4 0  9991
2 10114 097.2277 029.8286 0013104 306.2948 053.7074 15.15361295 74969
Epoch (UTC): 01 July 2015 13:15:07
Eccentricity: 0.0013104
inclination: 97.2277°
perigee height: 511 km
apogee height: 529 km
right ascension of ascending node: 29.8286°
argument of perigee: 306.2948°
revolutions per day: 15.15361295
mean anomaly at epoch: 53.7074°
orbit number at epoch: 7496

The dashed part of the orbit path shows where the satellite is in the earth's shadow,  

DLR